Location: Colossi of Memnon
(25.7167°N, 32.6167°E)
Time: 04:30:04
(UTC+00:00)

Cosmos 2322 Rocket - Pass Details

Date: 05 March 2021
Orbit: 832 x 852 km, 71.0° (Epoch: 10 April)

Event Time Altitude Azimuth Distance (km) Brightness Sun altitude
Exits shadow 02:08:41 - 347° (NNW) 2,572 4.6 -27.9°
Reaches altitude 10° 02:08:58 10° 348° (NNW) 2,466 4.6 -27.8°
Maximum altitude 02:14:36 68° 71° (ENE) 910 2.4 -26.5°
Drops below altitude 10° 02:20:14 10° 154° (SSE) 2,466 4.8 -25.3°
Sets 02:22:42 0° 156° (SSE) 3,400 5.6 -24.7°
